Weather past 2 weeks in Bantam, Cocos Islands

Now
81 °F

Passing clouds.


Feels Like: 85 °F
Forecast: 79 / 83 °F
Wind: 9 mph from Southeast

Location: Cocos Island Airport

Current Time: Jul 30, 2015 at 11:21:56 PM

Latest Report: Jul 30, 2015 at 11:00 PM


Visibility: N/A

Pressure: 29.98 "Hg

Humidity: 79%

Dew point: 73 °F

Location of BantamLocation

Historic Weather in Bantam — Graph

°F

Bantam temperature yesterday

Maximum temperature yesterday: 84 °F (at 10:00 AM)
Minimum temperature yesterday: 79 °F (at 12:00 AM)
Average temperature yesterday: 81 °F

Past Weeks' High & Low Weather Summary

 TemperatureHumidityPressure
High84 °F (Jul 17, 12:00 PM)94% (Jul 16, 8:30 PM)30.04 "Hg (Jul 16, 8:30 PM)
Low72 °F (Jul 26, 4:00 AM)62% (Jul 26, 2:00 PM)29.80 "Hg (Jul 16, 4:00 AM)
Average81 °F77%29.91 "Hg
* Reported Jul 15 9:30 PM — Jul 30 10:00 PM, Bantam, Weather by CustomWeather, © 2015

Note: Actual official high and low records may vary slightly from our data, if they occured in-between our weather recording intervals... More about our weather records

Advertising

Bantam weather history for previous 24 hours

 ConditionsComfort  
Time TempWeatherWind HumidityBarometerVisibility
10:00 PM
Thu, Jul 30
81 °FPassing clouds.14 mph79%29.98 "HgN/A
9:30 PM81 °FClear.15 mph79%29.98 "HgN/A
9:00 PM81 °FPassing clouds.15 mph79%29.98 "HgN/A
8:30 PM81 °FPassing clouds.13 mph79%29.98 "HgN/A
8:00 PM81 °FWarm.16 mph79%29.95 "HgN/A
7:30 PM81 °FPassing clouds.16 mph79%29.95 "HgN/A
7:00 PM81 °FPartly cloudy.16 mph79%29.95 "HgN/A
6:30 PM81 °FScattered clouds.16 mph79%29.95 "HgN/A
6:00 PM81 °FScattered clouds.15 mph79%29.95 "HgN/A
5:30 PM81 °FScattered clouds.15 mph79%29.92 "HgN/A
5:00 PM82 °FPassing clouds.16 mph74%29.92 "HgN/A
4:30 PM82 °FPassing clouds.15 mph74%29.92 "HgN/A
4:00 PM82 °FPassing clouds.13 mph74%29.92 "HgN/A
3:30 PM82 °FPassing clouds.15 mph70%29.92 "HgN/A
3:00 PM82 °FPassing clouds.16 mph70%29.92 "HgN/A
2:30 PM82 °FPassing clouds.14 mph70%29.92 "HgN/A
2:00 PM82 °FPassing clouds.15 mph70%29.92 "HgN/A
1:30 PM84 °FPassing clouds.15 mph66%29.95 "HgN/A
1:00 PM82 °FScattered clouds.16 mph70%29.95 "HgN/A
12:30 PM84 °FPassing clouds.14 mph66%29.95 "HgN/A
12:00 PM84 °FPassing clouds.16 mph66%29.98 "HgN/A
11:30 AM84 °FPassing clouds.15 mph66%29.98 "HgN/A
11:00 AM84 °FPassing clouds.15 mph66%29.98 "HgN/A
10:00 AM84 °FPassing clouds.13 mph66%30.01 "HgN/A
9:30 AM82 °FPassing clouds.14 mph70%30.01 "HgN/A
9:00 AM82 °FPassing clouds.16 mph66%30.01 "HgN/A
8:30 AM82 °FPassing clouds.14 mph70%29.98 "HgN/A
8:00 AM81 °FPassing clouds.15 mph74%29.98 "HgN/A
7:30 AM81 °FPassing clouds.14 mph74%29.98 "HgN/A
7:00 AM81 °FPassing clouds.15 mph70%29.98 "HgN/A
6:30 AM79 °FPassing clouds.14 mph74%29.95 "HgN/A
6:00 AM79 °FPassing clouds.14 mph74%29.95 "HgN/A
5:30 AM79 °FPassing clouds.17 mph74%29.95 "HgN/A
5:00 AM79 °FClear.17 mph74%29.95 "HgN/A
4:30 AM79 °FClear.16 mph74%29.92 "HgN/A
4:00 AM79 °FClear.18 mph74%29.92 "HgN/A
3:30 AM79 °FPassing clouds.17 mph74%29.92 "HgN/A
3:00 AM81 °FPassing clouds.14 mph74%29.92 "HgN/A
2:30 AM79 °FPassing clouds.16 mph79%29.95 "HgN/A
2:00 AM81 °FClear.15 mph74%29.95 "HgN/A
1:30 AM81 °FClear.15 mph74%29.95 "HgN/A
1:00 AM81 °FWarm.13 mph74%29.95 "HgN/A
12:30 AM81 °FClear.10 mph79%29.98 "HgN/A
12:00 AM81 °FClear.13 mph74%29.98 "HgN/A
11:30 PM
Wed, Jul 29
81 °FClear.12 mph74%29.98 "HgN/A
11:00 PM81 °FPassing clouds.12 mph74%29.98 "HgN/A
Weather by CustomWeather, © 2015

See weather overviewHow to use our weather pages